This demonstration page uses our WeatherBlox Daily Observations layout. Learn more.

39.92423, -83.80882

Hourly Observations for June 14, 2016

Temp ( °F °C ) Dew Point ( °F °C ) Humidity (%) Winds ( mph kmh ) Pressure ( in mb ) Visibility ( mi km ) Precip ( " mm )
12:56 am 00:56 Clear 64 17.7 57 13.8 78 78 E 3 6 29.94 1014 10 16.0934 0 0
1:56 am 01:56 Clear 63 17.2 57 13.8 81 81 SSE 3 6 29.95 1014 10 16.0934 0 0
2:56 am 02:56 Clear 62 16.6 58 14.4 87 87 E 3 6 29.95 1014 10 16.0934 0 0
3:56 am 03:56 Partly Cloudy 62 16.6 57 13.8 84 84 NNE 5 7 29.95 1014 10 16.0934 0 0
4:56 am 04:56 Clear 62 16.6 54 12.2 75 75 E 9 15 29.95 1014 10 16.0934 0 0
5:56 am 05:56 Mostly Clear 62 16.6 53 11.6 73 73 ESE 9 15 29.97 1015 10 16.0934 0 0
6:56 am 06:56 Sunny 62 16.6 53 11.6 73 73 E 10 17 29.98 1015 10 16.0934 0 0
7:56 am 07:56 Sunny 64 17.7 52 11.1 65 65 E 13 20 29.98 1015 10 16.0934 0 0
8:56 am 08:56 Mostly Cloudy 68 20 52 11.1 57 57 ESE 10 17 29.99 1016 10 16.0934 0 0
9:56 am 09:56 Partly Cloudy 72 22.2 53 11.6 51 51 ESE 13 20 29.98 1015 10 16.0934 0 0
10:56 am 10:56 Sunny 75 23.8 54 12.2 48 48 SE 10 17 29.98 1015 10 16.0934 0 0
11:56 am 11:56 Sunny 79 26.1 55 12.7 43 43 E 9 15 29.98 1015 10 16.0934 0 0
12:56 pm 12:56 Sunny 82 27.7 55 12.7 40 40 S 10 17 29.97 1015 10 16.0934 0 0
1:56 pm 13:56 Sunny 84 28.8 55 12.7 37 37 SSE 10 17 29.96 1015 10 16.0934 0 0
2:56 pm 14:56 Mostly Sunny 83 28.3 55 12.7 38 38 SE 7 11 29.95 1014 10 16.0934 0 0
3:56 pm 15:56 Mostly Cloudy 83 28.3 57 13.8 41 41 NNW 6 9 29.95 1014 10 16.0934 0 0
4:56 pm 16:56 Mostly Sunny 80 26.6 61 16.1 53 53 NNE 10 17 29.93 1013 10 16.0934 0 0.0254
5:56 pm 17:56 Sunny 76 24.4 62 16.6 62 62 NE 7 11 29.93 1013 10 16.0934 0 0
6:56 pm 18:56 Mostly Sunny 77 25 62 16.6 60 60 ENE 7 11 29.92 1013 10 16.0934 0 0
7:56 pm 19:56 Mostly Sunny 78 25.5 63 17.2 60 60 ENE 7 11 29.91 1013 10 16.0934 0 0
8:56 pm 20:56 Mostly Sunny 75 23.8 62 16.6 64 64 E 5 7 29.91 1013 10 16.0934 0 0
9:56 pm 21:56 Clear 72 22.2 61 16.1 68 68 E 7 11 29.91 1013 10 16.0934 0 0
10:56 pm 22:56 Clear 71 21.6 61 16.1 71 71 E 8 13 29.91 1013 10 16.0934 0 0
11:56 pm 23:56 Clear 73 22.7 61 16.1 66 66 ESE 8 13 29.9 1012 10 16.0934 0 0

Powered by AerisWeather